GRKNM EGBJ-EGFF

Flight info

Callsign GRKNM
Flight time 0h 19m
Altitude 5500
Route CARDIFF DOCKS
Aircraft AC50/L-FRV/C

Departure

Time 2026-04-30 22:29
Airport Gloucestershire Airport (EGBJ)

Arrival

Time 2026-04-30 22:48
Airport Cardiff International Airport (EGFF)
Time Latitude Longitude Altitude Speed Heading
2026-04-30 22:26 51.89369 -2.15832 106 ft 0 kts 230°
2026-04-30 22:27 51.89366 -2.15847 106 ft 7 kts 278°
2026-04-30 22:27 51.89395 -2.15918 106 ft 10 kts 315°
2026-04-30 22:27 51.89449 -2.16049 106 ft 36 kts 258°
2026-04-30 22:28 51.89406 -2.17583 312 ft 111 kts 283°
2026-04-30 22:28 51.89635 -2.19424 590 ft 134 kts 268°
2026-04-30 22:29 51.87595 -2.22765 1387 ft 150 kts 225°
2026-04-30 22:29 51.87085 -2.23573 1561 ft 152 kts 226°
2026-04-30 22:30 51.83991 -2.28624 2400 ft 170 kts 225°
2026-04-30 22:31 51.81381 -2.32922 2503 ft 187 kts 234°
2026-04-30 22:32 51.79182 -2.38235 2501 ft 191 kts 239°
2026-04-30 22:32 51.77671 -2.41767 2500 ft 191 kts 237°
2026-04-30 22:33 51.75434 -2.47083 2500 ft 191 kts 238°
2026-04-30 22:33 51.73872 -2.50577 2500 ft 192 kts 234°
2026-04-30 22:34 51.71353 -2.55687 2501 ft 195 kts 233°
2026-04-30 22:35 51.69635 -2.59061 2500 ft 196 kts 232°
2026-04-30 22:36 51.66112 -2.65828 2500 ft 197 kts 230°
2026-04-30 22:36 51.65203 -2.67453 2500 ft 197 kts 229°
2026-04-30 22:37 51.62374 -2.72267 2500 ft 197 kts 228°
2026-04-30 22:37 51.61419 -2.73854 2500 ft 197 kts 228°
2026-04-30 22:37 51.59512 -2.77001 2500 ft 197 kts 227°
2026-04-30 22:38 51.57596 -2.80149 2500 ft 197 kts 227°
2026-04-30 22:38 51.55666 -2.83314 2506 ft 197 kts 227°
2026-04-30 22:39 51.54718 -2.84876 2513 ft 197 kts 228°
2026-04-30 22:39 51.51972 -2.89754 2523 ft 196 kts 231°
2026-04-30 22:40 51.49259 -2.94709 2525 ft 197 kts 230°
2026-04-30 22:41 51.46384 -2.99854 2062 ft 204 kts 229°
2026-04-30 22:41 51.44562 -3.03104 2212 ft 196 kts 230°
2026-04-30 22:42 51.40904 -3.09617 2015 ft 181 kts 230°
2026-04-30 22:43 51.39313 -3.12502 1829 ft 171 kts 231°
2026-04-30 22:43 51.37953 -3.15179 1889 ft 148 kts 234°
2026-04-30 22:44 51.36915 -3.17781 2004 ft 130 kts 247°
2026-04-30 22:45 51.36265 -3.22809 2006 ft 116 kts 273°
2026-04-30 22:45 51.36618 -3.25139 1700 ft 109 kts 296°
2026-04-30 22:46 51.37318 -3.27298 1265 ft 111 kts 301°
2026-04-30 22:47 51.38764 -3.31544 485 ft 100 kts 296°
2026-04-30 22:47 51.39294 -3.33205 226 ft 62 kts 297°
2026-04-30 22:48 51.39557 -3.34025 225 ft 22 kts 297°
2026-04-30 22:49 51.39530 -3.34269 225 ft 0 kts 218°